Regional Weather Roundup
Issued by NWS

Home | Current Version | Previous Version | Graphics & Text | Print | Product List | Glossary On
Versions: 1 2 3 4 5 6 7 8 9 10 11 12 13 14 15 16 17 18 19 20 21 22 23 24 25 26 27 28 29 30 31 32 33 34 35 36 37 38 39 40 41 42 43 44 45 46 47 48 49 50
000
ASUS43 KMPX 261010
RWRMN
WEATHER ROUNDUP FOR MINNESOTA
NATIONAL WEATHER SERVICE TWIN CITIES/CHANHASSEN MN
500 AM CDT WED APR 26 2017


NOTE: "FAIR" INDICATES FEW OR NO CLOUDS BELOW 12,000 FEET WITH NO
SIGNIFICANT WEATHER AND/OR OBSTRUCTIONS TO VISIBILITY. N/A MEANS
CURRENT SKY AND/OR WEATHER CONDITIONS ARE NOT AVAILABLE.

MNZ060>063-068>070-261100-
   Twin Cities Metro

CITY           SKY/WX    TMP DP  RH WIND       PRES   REMARKS
TWIN CITIES    LGT RAIN  40  37  89 N14       29.48S
ST PAUL        LGT RAIN  40  38  93 N10       29.49S
CRYSTAL        LGT RAIN  37  33  85 N16G24    29.49S FOG
BLAINE         LGT RAIN  37  37 100 N15G23    29.50S
LAKEVILLE      LGT RAIN  41  41 100 N13       29.46R
EDEN PRAIRIE   LGT RAIN  40  37  89 N16G28    29.47R FOG
SOUTH ST PAUL  LGT RAIN  41  41  99 N9G17     29.47S
LAKE ELMO      RAIN      39  37  93 N9G17     29.49R
$$
MNZ001>005-007-008-013>017-022>024-027-028-261100-
   Northwest Minnesota

CITY           SKY/WX    TMP DP  RH WIND       PRES   REMARKS
BEMIDJI        LGT SNOW  26  24  92 NE10G16   29.74S WCI  16
HALLOCK        CLOUDY    30  25  80 NE13      29.88F WCI  20
ROSEAU         CLOUDY    28  23  80 NE17      29.86S WCI  16
WARROAD        CLOUDY    28  25  86 NE18G26   29.87S WCI  16
THIEF RVR FALL CLOUDY    28  23  81 NE21      29.80F WCI  15
CROOKSTON      CLOUDY    30  25  80 NE15G22   29.82S WCI  19
FOSSTON        MIX PCPN  27  25  93 NE16G22   29.75F WCI  14
DETROIT LAKES  FLURRIES  32  30  93 NE8       29.69F WCI  25
MOORHEAD       LGT RAIN  30  28  93 N8        29.75S WCI  23
PARK RAPIDS    MIX PCPN  30  24  78 N14G22    29.67F WCI  19
MAHNOMEN       MIX PCPN  29  27  91 NE6       29.71F WCI  23
$$
MNZ006-009>011-018-025>026-261100-
   North Central Minnesota

CITY           SKY/WX    TMP DP  RH WIND       PRES   REMARKS
BAUDETTE       CLOUDY    25  19  78 NE17G23   29.84S WCI  12
FLAG ISLAND    CLOUDY    27  21  80 NE23      29.90R WCI  12
INTL FALLS       N/A     24  18  77 NE18G28   29.81S WCI  10
WASKISH        CLOUDY    25  23  93 NE15G24   29.80S WCI  12
BIG FORK       MIX PCPN  27  21  80 N15       29.75S WCI  15
LONGVILLE      MIX PCPN  28  27  93 N5        29.68F WCI  23
GRAND RAPIDS   LGT SNOW  27  25  92 N10       29.70  FOG     WCI  17
CRANE LAKE     LGT SNOW  23  21  93 NE5       29.80F WCI  17
ORR            MIX PCPN  25  19  80 CALM      29.73F
COOK           MIX PCPN  25  21  86 NE5       29.75S WCI  19
WALKER         FLURRIES  27  25  91 N7        29.71S WCI  19
$$
MNZ012-019>021-037-261100-
   Northeast Minnesota

CITY           SKY/WX    TMP DP  RH WIND       PRES   REMARKS
DULUTH         FRZ RAIN  31  29  92 E17       29.64F WCI  19
ELY            FLURRIES  23  21  93 NE9G18    29.73S WCI  13
HIBBING        MIX PCPN  26  24  92 NE8G20    29.70S FOG     WCI  18
EVELETH        LGT SNOW  26  23  86 NE8       29.71S WCI  18
DULUTH HARBOR  MIX PCPN  34  32  93 NE30G37   29.68S WCI  20
TWO HARBORS    LGT SNOW  34  28  80 NE10G17   29.66S WCI  26
SILVER BAY     LGT RAIN  32  30  93 NE5       29.67S WCI  27
GRAND MARAIS     N/A     32  28  85 VRB5      29.73R WCI  27
G MARAIS ARPRT LGT SNOW  25  19  80 N6        29.67R WCI  18
$$
MNZ029>031-032-039>041-046>048-054>057-064-261100-
   West Central Minnesota

CITY           SKY/WX    TMP DP  RH WIND       PRES   REMARKS
FERGUS FALLS   DRIZZLE   32  32 100 N5        29.68S WCI  27
WHEATON        MIX PCPN  32  30  93 NW17      29.69F WCI  21
MORRIS         CLOUDY    34  32  93 N16       29.62F WCI  23
ALEXANDRIA     CLOUDY    32  30  92 N15G25    29.61F WCI  22
ELBOW LAKE     DRIZZLE   32  32  98 N13G18    29.64F WCI  23
WADENA         MIX PCPN  30  28  93 N7        29.64S WCI  23
GLENWOOD       MIX PCPN  32  30  93 N14G22    29.59S WCI  22
APPLETON       CLOUDY    36  34  93 N17       29.62F
BENSON         DRIZZLE   37  32  81 N10G17    29.62S
ORTONVILLE     LGT RAIN  34  30  86 N18       29.64F WCI  23
MADISON        LGT SNOW  37  37 100 N17       29.63S
WILLMAR        DRIZZLE   36  36 100 N14       29.58S
$$
MNZ033>034-036-042>043-049>051-058-059-261100-
   Central Minnesota

CITY           SKY/WX    TMP DP  RH WIND       PRES   REMARKS
ST CLOUD       LGT RAIN  37  35  92 N15G22    29.54F
SAUK CENTRE    DRIZZLE   32  31  95 N15       29.58F WCI  22
PAYNESVILLE    RAIN      34  34 100 N16G28    29.56F WCI  23
AITKIN         MIX PCPN  34  28  80 N12       29.62F WCI  25
PINE RIVER     MIX PCPN  28  28 100 N8        29.70F WCI  20
BRAINERD       FRZ RAIN  32  30  92 N16G24    29.62F FOG     WCI  21
STAPLES        MIX PCPN  30  28  93 CALM      29.63F
LONG PRAIRIE   MIX PCPN  32  30  93 NW16G22   29.59F WCI  21
LITTLE FALLS   MIX PCPN  32  32 100 N6        29.59F WCI  26
LITCHFIELD     LGT RAIN  37  36  93 N15G23    29.53F
BUFFALO        LGT RAIN  38  36  90 N10       29.52S
MAPLE LAKE     RAIN      38  37  94 N12       29.53S
HUTCHINSON     LGT RAIN  40  39  98 N8G16     29.51S
$$
MNZ037-044-045-052-053-261100-
   East Central Minnesota

CITY           SKY/WX    TMP DP  RH WIND       PRES   REMARKS
PRINCETON      LGT RAIN  37  34  87 N15G24    29.54F
MORA           LGT RAIN  32  30  93 N5        29.58F WCI  27
CAMBRIDGE      RAIN      36  34  93 N9G20     29.52S
RUSH CITY      RAIN      34  32  92 NE13      29.54F WCI  25
MOOSE LAKE     MIX PCPN  32  32 100 NE10G17   29.59F WCI  24
HINCKLEY       LGT SNOW  34  32  93 NE15G22   29.56F WCI  24
CLOQUET        FLURRIES  32  28  86 NE14G23   29.63F WCI  22
MCGREGOR       CLOUDY    32  30  93 N10       29.63F WCI  24
$$
MNZ071>073-080-081-089-090-097-098-261100-
   Southwest Minnesota

CITY           SKY/WX    TMP DP  RH WIND       PRES   REMARKS
MONTEVIDEO     CLOUDY    36  36 100 N16       29.59F FOG
GRANITE FALLS  CLOUDY    37  35  92 NW14G25   29.60S
CANBY          CLOUDY    35  34  97 NW16      29.63S FOG     WCI  25
MARSHALL       LGT RAIN  35  34  96 N20       29.59R FOG     WCI  24
REDWOOD FALLS  LGT RAIN  38  35  89 N14G22    29.55R
OLIVIA         CLOUDY    36  34  93 N13       29.55R FOG
PIPESTONE      MIX PCPN  34  30  86 N17G24    29.58R WCI  23
WINDOM         DRIZZLE   37  37 100 NW28      29.51F
WORTHINGTON    CLOUDY    36  35  96 NW25G32   29.54S
JACKSON        LGT SNOW  37  37 100 NW22G31   29.51R
TRACY          LGT RAIN  36  36  99 N16G25    29.57S
SLAYTON        DRIZZLE   34  33  96 NW22      29.56R WCI  22
$$
MNZ065>067-074>077-082>085-091>093-261100-
   South Central Minnesota

CITY           SKY/WX    TMP DP  RH WIND       PRES   REMARKS
MANKATO        LGT RAIN  43  41  93 N18       29.45S
NEW ULM        CLOUDY    41  39  93 NW15      29.50R
ST JAMES       CLOUDY    41  41 100 NW21      29.49S FOG
FAIRMONT       LGT RAIN  42  41  96 NW18G26   29.47R
GLENCOE        LGT RAIN  41  41 100 N8G17     29.48S
FARIBAULT      LGT RAIN  45  45 100 N12       29.44R
OWATONNA       RAIN      48  46  93 N13       29.42R
WASECA         DRIZZLE   45  43  93 N16G22    29.43S
ALBERT LEA     RAIN      50  48  93 W3        29.40S
$$
MNZ078>079-086>088-094>096-261100-
   Southeast Minnesota

CITY           SKY/WX    TMP DP  RH WIND       PRES   REMARKS
ROCHESTER      CLOUDY    52  52 100 NE8       29.39S
RED WING       DRIZZLE   48  45  87 NE5       29.42S
STANTON        LGT RAIN  45  43  91 N16       29.43R
DODGE CENTER   DRIZZLE   52  52 100 N6        29.39S
WINONA         CLOUDY    54  52  94 CALM      29.39S
AUSTIN         CLOUDY    52  50  93 CALM      29.38S
PRESTON        CLOUDY    52  50  93 CALM      29.38S
$$
ABBREVIATIONS USED IN REMARKS
   TC - TEMPERATURES IN CELSIUS
  WCI - WIND CHILL INDEX
   HX - HEAT INDEX
  VSB - VISIBILITY
$$



USA.gov is the U.S. government's official web portal to all federal, state and local government web resources and services.